Regional Weather Roundup
Issued by NWS Charleston, SC

Current Version | Previous Version | Graphics & Text | Print | Product List | Glossary On
Versions: 1 2 3 4 5 6 7 8 9 10 11 12 13 14 15 16 17 18 19 20 21 22 23 24 25 26 27 28 29 30 31 32 33 34 35 36 37 38 39 40 41 42 43 44 45 46 47 48 49 50
000
ASUS42 KCHS 242112
RWRCHS

REGIONAL WEATHER ROUNDUP
NATIONAL WEATHER SERVICE CHARLESTON SC
500 PM EDT SUN MAY 24 2015

NOTE: "FAIR" INDICATES FEW OR NO CLOUDS BELOW 12,000 FEET WITH NO
SIGNIFICANT WEATHER AND/OR OBSTRUCTIONS TO VISIBILITY.

NOT ALL STATIONS ARE QUALITY CONTROLLED BY THE NATIONAL
WEATHER SERVICE. USE DATA WITH CAUTION...ESPECIALLY
DEWPOINT OBSERVATIONS.

SCZ027-030-031-034>040-042>050-242200-
...SOUTHEAST SOUTH CAROLINA...

CITY           SKY/WX    TMP DP  RH WIND       PRES   REMARKS
N CHARLESTON   PTSUNNY   79  59  50 SE15      30.31F
WATERFRONT PAR   N/A     76  63  63 E15       30.28F
MOUNT PLEASANT LGT RAIN  79  61  53 E10G16    30.31F
JOHNS ISLAND   PTCLDY    79  63  57 E15       30.31F
PINOPOLIS        N/A     82  57  42 SE6       30.22F
MONCKS CORNER  FAIR      81  57  44 SE6       30.31S
SUMMERVILLE    FAIR      82  59  44 SE8       30.31F
BEAUFORT MCAS  PTSUNNY   80  63  55 E15G21    30.29F
BEAUFORT ARPT  CLOUDY    77  64  65 E13G20    30.29F
HILTON HEAD IS MOSUNNY   79  66  65 NE12G17   30.30F
WALTERBORO     CLEAR     81  57  44 E12       30.29F
ALLENDALE      FAIR      84  57  39 SE9G16    30.26F

...SOUTHERN MIDLANDS AND PEE DEE...

CITY           SKY/WX    TMP DP  RH WIND       PRES   REMARKS
GEORGETOWN     NOT AVBL
KINGSTREE      NOT AVBL
ORANGEBURG     MOSUNNY   82  56  40 SE8       30.29F
BARNWELL       FAIR      84  55  37 E9        30.27F
AIKEN          FAIR      82  48  30 SE7       30.30F
MANNING        MOCLDY    77  54  44 E6        30.31F
COLUMBIA       MOSUNNY   85  54  34 E15       30.28F
SUMTER         MOSUNNY   83  54  37 SE13      30.28F
FLORENCE       MOSUNNY   83  55  38 SE10      30.31F
MYRTLE BEACH   MOSUNNY   79  59  50 SE13      30.36F
N MYRTLE BEACH SUNNY     79  59  50 E8        30.35F

$$

GAZ063-065-086>088-099>101-113>116-118-119-134>141-150-242200-
...SOUTHEAST GEORGIA...

CITY           SKY/WX    TMP DP  RH WIND       PRES   REMARKS
SAVANNAH ARPT  PTSUNNY   82  63  52 E15       30.27F
HUNTER AAF     MOSUNNY   80  66  61 E16       30.25F
FORT STEWART   MOSUNNY   82  62  50 E10       30.24S
STATESBORO     MOSUNNY   84  63  49 SE9       30.25F
SYLVANIA       CLEAR     84  60  43 S9        30.27F
CLAXTON        FAIR      82  61  47 E13G18    30.25F

...CSRA...CENTRAL AND FAR SOUTHEAST GEORGIA...

CITY           SKY/WX    TMP DP  RH WIND       PRES   REMARKS
THOMSON        MOSUNNY   85  59  40 E6        30.29F
AUGUSTA-BUSH   MOSUNNY   85  56  37 S12       30.24F
AUGUSTA-DANIEL SUNNY     85  55  35 SE10G16   30.26F
SWAINSBORO     FAIR      86  59  39 SE12G20   30.24F
VIDALIA        PTSUNNY   82  55  39 E10G20    30.24S
EASTMAN        MOCLDY    89  60  37 SE10G17   30.24F
HAZLEHURST     MOCLDY    86  57  37 SE6       30.22S
ALMA           PTSUNNY   83  58  42 E12G17    30.23S
WAYCROSS       PTSUNNY   86  63  46 SE12G18   30.23S
JESUP          FAIR      86  63  45 SE12      30.24F
BAXLEY         PTSUNNY   86  59  39 E12G17    30.23S
BRUNSWICK      PTSUNNY   81  64  57 NE15      30.26S
SAINT SIMONS   NOT AVBL

$$

SCZ027-028-034-036>038-045-046-048>050-GAZ119-141-242200-
...LAKE AND SUPPLEMENTAL COASTAL OBSERVATIONS...

STATION/POSITION TIME  TEMP    WIND        PRES    WAVE   SWELL
                       AIR SEA DIR/SP/G            HT/PER HT/PER/DIR
                 (UTC) (F)     (DEG/KT/KT) (MB)    (FT/S) (FT/S/D)
UPR LAKE MARION  NOT AVBL
WINYAH BAY       1945   76      90/ 11     1027.0
LAKE MURRAY      2000   80      90/  6/ 10 1025.4F
ACE BASIN NERRS  NOT AVBL
FORT PULASKI     2000   76 78   60/ 16/ 19 1026.3F
SAPELO ISLAND    2000   80      60/ 14     1025.0F

$$

ANZ835-935-AMZ111-154-330-350-352-354-370-450-454-472-242200-
...C-MAN AND BUOY OBSERVATIONS...

STATION/POSITION TIME  TEMP    WIND        PRES    WAVE   SWELL
                       AIR SEA DIR/SP/G            HT/PER HT/PER/DIR
                 (UTC) (F)     (DEG/KT/KT) (MB)    (FT/S) (FT/S/D)
BUOY 41004       2050   76 75   90/ 16/ 19 1025.6F   5/ 7
BUOY 41008       2050   75 75   50/ 14/ 16 1024.4F   4/ 8   2/100/ 8
FOLLY BEACH CMAN 2100   76      80/ 14/ 16 1026.4F
CAPERS NEARSHORE 2008   75      80/ 14/ 17 1026.8
FRIPP NEARSHORE  2000   77      70/ 14/ 17 1025.2F


STATION/POSITION TIME  TEMP    WIND        PRES    WAVE   SWELL
                       AIR SEA DIR/SP/G            HT/PER HT/PER/DIR
                 (UTC) (F)     (DEG/KT/KT) (MB)    (FT/S) (FT/S/D)
5E ST. MARYS GA  2021      78                N/A     4/ 8
FRYING PAN BUOY  2050   76 74  110/ 12/ 14 1028.2F   4/ 6   3/110/ 6
BUOY 41025       2050   73 78   20/  8/ 10 1028.7F   2/ 8   2/ 80/ 8
CAPE LOOKOUT NC  2100   74      60/  8/  8 1028.1F
BUOY 41002       2050   72 74   70/ 16/ 19 1026.7F   6/ 6
BUOY 41010       2020   79 80  100/ 14/ 16 1022.8F
ST AUGUSTINE FL  2100   77 78   40/ 12/ 13 1023.8F


$$



USA.gov is the U.S. government's official web portal to all federal, state and local government web resources and services.